CDT,Max TemperatureF,Mean TemperatureF,Min TemperatureF,Max Dew PointF,MeanDew PointF,Min DewpointF,Max Humidity, Mean Humidity, Min Humidity, Max Sea Level PressureIn, Mean Sea Level PressureIn, Min Sea Level PressureIn, Max VisibilityMiles, Mean VisibilityMiles, Min VisibilityMiles, Max Wind SpeedMPH, Mean Wind SpeedMPH, Max Gust SpeedMPH,PrecipitationIn, CloudCover, Events, WindDirDegrees
2012-9-1,95,82,69,75,72,70,100,78,47,30.22,30.14,30.06,10,10,7,10,1,,0.00,1,,211
2012-9-2,91,82,73,75,73,72,100,82,52,30.08,30.00,29.92,10,10,3,15,4,36,0.08,3,Rain-Thunderstorm,190
2012-9-3,80,76,71,75,72,70,100,93,79,29.97,29.95,29.92,10,8,2,9,3,,0.00,7,Rain,183
2012-9-4,89,81,73,77,74,72,100,86,59,29.96,29.93,29.89,10,8,1,7,1,,0.00,7,Rain,170
2012-9-5,89,81,73,79,74,72,100,87,59,29.97,29.91,29.85,10,8,2,9,1,18,0.95,5,Rain-Thunderstorm,195
2012-9-6,87,78,69,73,72,68,100,86,62,30.03,29.98,29.92,10,9,1,8,1,,0.00,4,,61
2012-9-7,91,78,66,73,70,66,100,78,46,30.02,29.95,29.83,10,7,0,8,2,,0.00,2,Fog,180
2012-9-8,80,68,55,73,65,55,100,84,69,29.99,29.86,29.76,10,10,2,13,4,31,0.06,3,Rain,282
2012-9-9,78,66,55,61,57,34,100,81,21,30.09,30.02,29.96,10,7,0,6,1,,0.00,5,Fog,297
2012-9-10,80,68,55,61,57,34,100,80,41,30.21,30.15,30.01,10,7,0,10,1,,0.00,3,Fog,356
2012-9-11,84,68,53,64,58,54,100,80,42,30.30,30.25,30.21,10,8,0,8,1,,0.00,3,Fog,217
2012-9-12,84,70,57,64,61,57,100,79,45,30.36,30.30,30.24,10,10,7,7,1,,0.00,3,,51
2012-9-13,82,70,57,66,62,57,100,81,51,30.38,30.30,30.23,10,9,5,6,0,,0.00,1,,5
2012-9-14,84,72,60,64,63,59,100,80,45,30.29,30.25,30.21,10,9,0,8,1,,0.00,2,Fog,5
2012-9-15,82,70,59,66,63,57,100,85,58,30.28,30.21,30.15,10,8,0,8,1,,0.00,4,Fog,18
2012-9-16,80,72,64,70,66,64,100,86,58,30.16,30.11,30.06,10,8,5,8,1,,0.00,5,Rain,35
2012-9-17,71,68,64,70,67,64,100,95,94,30.08,29.96,29.76,10,4,1,10,0,,1.18,7,Rain,175
2012-9-18,71,63,55,70,64,54,100,90,77,30.03,29.80,29.70,10,8,2,12,1,20,0.62,7,Rain,334
2012-9-19,73,60,48,55,51,46,100,78,46,30.16,30.11,30.03,10,10,7,7,1,17,0.00,0,,15
2012-9-20,80,64,48,63,55,34,100,83,18,30.16,30.10,30.03,10,8,0,9,1,18,0.00,3,Fog,193
2012-9-21,82,68,53,64,58,52,100,73,51,30.10,30.03,29.94,10,8,0,15,2,21,0.00,1,Fog,203
2012-9-22,82,68,53,64,58,48,100,67,38,30.13,30.01,29.95,10,10,10,14,5,22,0.00,3,,238
2012-9-23,69,56,44,52,45,39,100,73,33,30.26,30.20,30.13,10,10,10,10,2,,0.00,0,,10
2012-9-24,73,58,42,50,45,41,100,77,36,30.31,30.23,30.14,10,8,0,8,0,,0.00,2,Fog,133
2012-9-25,71,58,44,61,52,45,100,81,60,30.22,30.17,30.13,10,10,10,8,1,,0.00,2,Thunderstorm,165
2012-9-26,84,70,55,64,59,34,100,75,20,30.23,30.17,30.12,10,10,10,9,3,16,0.00,0,,171
2012-9-27,82,68,55,72,62,34,100,85,41,30.23,30.18,30.13,10,8,1,6,1,,0.00,3,Rain,214
2012-9-28,77,70,62,72,65,61,100,91,65,30.15,30.10,30.04,10,6,0,8,0,,0.02,6,Fog-Rain,244
2012-9-29,75,65,55,68,63,55,100,88,65,30.06,30.00,29.93,10,7,1,10,1,,0.00,6,Rain,355
2012-9-30,73,63,53,61,57,52,100,86,47,29.99,29.92,29.86,10,6,0,4,0,,0.00,4,Fog-Rain,271